User: anonymous   Login
Location: ??
(34.9170°N, 135.5016°E)
Time: 16:16:45
(UTC+00:00)
Language:

XW-2D - Orbit

View from above orbital plane
View from above orbital plane
View from above satellite
View from above satellite

Ground track
Ground track

The orbit data is extracted from the following two-line orbital elements,

1 40907U 15049J   21106.28115804  .00000961  00000-0  52047-4 0  9996
2 40907  97.4847 109.1893 0015257  44.9329  11.6634 15.16918889308179
Epoch (UTC): 16 April 2021 06:44:52
Eccentricity: 0.0015257
inclination: 97.4847°
perigee height: 504 km
apogee height: 525 km
right ascension of ascending node: 109.1893°
argument of perigee: 44.9329°
revolutions per day: 15.16918889
mean anomaly at epoch: 11.6634°
orbit number at epoch: 30817

The dashed part of the orbit path shows where the satellite is in the earth's shadow,  

DLR